Date String (YYYY-MM-DD hh:mm:ss) UTC,Instrument flags,Ambient pressure (hPa),Sample flow (lpm),Bypass flow (lpm),Sample temperature (°C),Ambient temperature (°C),ASC tube jacket temperature (°C),LED temperature (°C),Box temperature (°C),Sample RH (%),Span deviation,Mass concentration (μg/m³),Mass concentration (μg/m³),Mass concentration (μg/m³)
DateTimeUTC,F1_M11,P_M11,Q1_M11,Q2_M11,T1_M11,T2_M11,T3_M11,T4_M11,T5_M11,U1_M11,ZSPAN_M11,X2_M11,X0_M11,X1_M11
2022-02-06 08:00:00,,0829.5,4.99,0.00,22.3,22.0,00.0,31.3,24.0,08.6,0000.0,0002.88,0007.69,0002.24
2022-02-06 08:01:00,,0829.4,5.00,0.00,22.4,22.8,00.0,31.4,24.3,08.5,0000.0,0002.82,0007.64,0002.23
2022-02-06 08:02:00,,0829.5,5.01,0.00,22.5,23.2,00.0,31.4,24.5,08.5,0000.0,0002.82,0007.05,0002.23
2022-02-06 08:03:00,,0829.5,5.00,0.00,22.6,23.0,00.0,31.4,24.5,08.4,0000.0,0002.77,0005.64,0002.21
2022-02-06 08:04:00,,0829.5,4.99,0.00,22.6,22.8,00.0,31.4,24.5,08.4,0000.0,0002.73,0005.23,0002.19
2022-02-06 08:05:00,,0829.4,5.00,0.00,22.6,22.6,00.0,31.5,24.5,08.4,0000.0,0002.73,0005.85,0002.17
2022-02-06 08:06:00,,0829.4,5.01,0.00,22.6,22.5,00.0,31.5,24.4,08.5,0000.0,0002.69,0005.82,0002.14
2022-02-06 08:07:00,,0829.5,4.99,0.00,22.6,22.3,00.0,31.5,24.4,08.7,0000.0,0002.64,0006.10,0002.13
2022-02-06 08:08:00,,0829.4,5.01,0.00,22.6,22.2,00.0,31.5,24.3,08.7,0000.0,0002.60,0006.83,0002.12
2022-02-06 08:09:00,,0829.4,5.02,0.00,22.5,22.1,00.0,31.5,24.3,08.7,0000.0,0002.66,0007.57,0002.14
2022-02-06 08:10:00,,0829.5,4.99,0.00,22.5,22.0,00.0,31.5,24.3,08.6,0000.0,0002.70,0007.57,0002.15
2022-02-06 08:11:00,,0829.5,5.00,0.00,22.5,22.0,00.0,31.5,24.3,08.6,0000.0,0002.75,0007.62,0002.17
2022-02-06 08:12:00,,0829.5,5.00,0.00,22.5,21.9,00.0,31.5,24.2,08.6,0000.0,0002.81,0007.89,0002.17
2022-02-06 08:13:00,,0829.5,5.01,0.00,22.5,21.9,00.0,31.5,24.2,08.6,0000.0,0002.86,0008.15,0002.18
2022-02-06 08:14:00,,0829.5,4.98,0.00,22.5,21.9,00.0,31.5,24.2,08.7,0000.0,0002.87,0008.20,0002.18
2022-02-06 08:15:00,,0829.5,5.01,0.00,22.5,21.8,00.0,31.5,24.2,08.6,0000.0,0002.85,0007.94,0002.20
2022-02-06 08:16:00,,0829.4,4.99,0.00,22.4,21.8,00.0,31.5,24.2,08.6,0000.0,0002.80,0007.60,0002.21
2022-02-06 08:17:00,,0829.3,5.00,0.00,22.4,21.8,00.0,31.5,24.1,08.5,0000.0,0002.78,0007.43,0002.21
2022-02-06 08:18:00,,0829.3,5.00,0.00,22.4,21.7,00.0,31.5,24.1,08.9,0000.0,0002.76,0006.84,0002.18
2022-02-06 08:19:00,,0829.3,4.98,0.00,22.4,21.7,00.0,31.4,24.1,08.6,0000.0,0002.76,0007.03,0002.16
2022-02-06 08:20:00,,0829.3,5.01,0.00,22.4,21.7,00.0,31.4,24.1,08.5,0000.0,0002.72,0006.52,0002.15
2022-02-06 08:21:00,,0829.3,5.00,0.00,22.4,21.7,00.0,31.4,24.1,08.4,0000.0,0002.68,0006.42,0002.12
2022-02-06 08:22:00,,0829.2,5.00,0.00,22.3,21.5,00.0,31.4,24.0,08.5,0000.0,0002.55,0006.29,0002.03
2022-02-06 08:23:00,,0829.4,5.01,0.00,22.2,21.4,00.0,31.4,23.9,08.5,0000.0,0002.37,0006.29,0001.92
2022-02-06 08:24:00,,0829.3,4.98,0.00,22.2,21.3,00.0,31.4,23.8,08.5,0000.0,0002.29,0006.01,0001.88
2022-02-06 08:25:00,,0829.3,5.02,0.00,22.2,21.3,00.0,31.3,23.8,08.5,0000.0,0002.25,0005.89,0001.86
2022-02-06 08:26:00,,0829.3,4.99,0.00,22.1,21.2,00.0,31.3,23.7,08.7,0000.0,0002.20,0006.10,0001.81
2022-02-06 08:27:00,,0829.3,5.00,0.00,22.1,21.2,00.0,31.3,23.6,08.7,0000.0,0002.09,0006.08,0001.71
2022-02-06 08:28:00,,0829.4,5.00,0.00,22.0,21.3,00.0,31.3,23.7,08.6,0000.0,0002.03,0006.13,0001.61
2022-02-06 08:29:00,,0829.3,4.99,0.00,22.1,22.0,00.0,31.3,23.9,08.7,0000.0,0001.95,0006.01,0001.53
2022-02-06 08:30:00,,0829.4,4.99,0.00,22.3,22.9,00.0,31.3,24.2,08.7,0000.0,0001.81,0004.54,0001.43
2022-02-06 08:31:00,,0829.5,5.01,0.00,22.4,23.1,00.0,31.3,24.4,08.8,0000.0,0001.69,0004.27,0001.32
2022-02-06 08:32:00,,0829.5,5.00,0.00,22.5,22.9,00.0,31.3,24.4,08.9,0000.0,0001.67,0004.27,0001.28
2022-02-06 08:33:00,,0829.5,5.00,0.00,22.5,22.7,00.0,31.4,24.4,09.1,0000.0,0001.81,0004.46,0001.34
2022-02-06 08:34:00,,0829.5,4.99,0.00,22.5,22.5,00.0,31.4,24.3,09.3,0000.0,0001.91,0004.01,0001.42
2022-02-06 08:35:00,,0829.5,4.99,0.00,22.5,22.4,00.0,31.4,24.3,09.0,0000.0,0001.89,0004.56,0001.40
2022-02-06 08:36:00,,0829.5,5.01,0.00,22.5,22.3,00.0,31.4,24.3,09.1,0000.0,0001.93,0004.69,0001.38
2022-02-06 08:37:00,,0829.5,5.01,0.00,22.5,22.2,00.0,31.4,24.3,09.1,0000.0,0001.99,0004.66,0001.40
2022-02-06 08:38:00,,0829.5,5.00,0.00,22.5,22.1,00.0,31.4,24.3,09.1,0000.0,0002.06,0004.61,0001.47
2022-02-06 08:39:00,,0829.5,5.00,0.00,22.5,22.1,00.0,31.4,24.3,09.2,0000.0,0002.17,0004.66,0001.56
2022-02-06 08:40:00,,0829.5,5.00,0.00,22.5,22.0,00.0,31.4,24.3,09.3,0000.0,0002.26,0004.84,0001.64
2022-02-06 08:41:00,,0829.5,5.02,0.00,22.5,22.0,00.0,31.4,24.3,09.3,0000.0,0002.42,0005.24,0001.73
2022-02-06 08:42:00,,0829.5,4.99,0.00,22.5,22.0,00.0,31.4,24.3,09.1,0000.0,0002.47,0005.49,0001.80
2022-02-06 08:43:00,,0829.5,5.02,0.00,22.5,22.0,00.0,31.4,24.3,09.1,0000.0,0002.48,0005.85,0001.82
2022-02-06 08:44:00,,0829.5,4.99,0.00,22.5,21.9,00.0,31.4,24.2,09.1,0000.0,0002.44,0005.78,0001.83
2022-02-06 08:45:00,,0829.5,4.99,0.00,22.5,21.8,00.0,31.4,24.2,09.2,0000.0,0002.47,0005.72,0001.84
2022-02-06 08:46:00,,0829.5,5.01,0.00,22.4,21.7,00.0,31.4,24.1,09.7,0000.0,0002.58,0006.70,0001.88
2022-02-06 08:47:00,,0829.5,5.00,0.00,22.3,21.6,00.0,31.4,24.0,09.5,0000.0,0002.64,0007.36,0001.92
2022-02-06 08:48:00,,0829.6,5.01,0.00,22.3,21.5,00.0,31.4,23.9,09.4,0000.0,0002.65,0007.29,0001.94
2022-02-06 08:49:00,,0829.5,4.99,0.00,22.2,21.4,00.0,31.4,23.8,09.5,0000.0,0002.64,0007.20,0001.97
2022-02-06 08:50:00,,0829.6,5.01,0.00,22.2,21.3,00.0,31.4,23.8,09.4,0000.0,0002.67,0007.25,0002.00
2022-02-06 08:51:00,,0829.6,4.99,0.00,22.1,21.3,00.0,31.3,23.7,09.3,0000.0,0002.75,0007.79,0002.04
2022-02-06 08:52:00,,0829.7,5.01,0.00,22.1,21.2,00.0,31.3,23.7,09.1,0000.0,0002.71,0007.95,0002.07
2022-02-06 08:53:00,,0829.7,4.99,0.00,22.1,21.2,00.0,31.3,23.7,09.2,0000.0,0002.75,0007.89,0002.12
2022-02-06 08:54:00,,0829.8,5.01,0.00,22.1,21.3,00.0,31.2,23.7,09.1,0000.0,0002.77,0007.62,0002.15
2022-02-06 08:55:00,,0829.8,5.00,0.00,22.1,21.3,00.0,31.2,23.8,09.1,0000.0,0002.76,0007.61,0002.17
2022-02-06 08:56:00,,0829.8,4.99,0.00,22.1,21.3,00.0,31.2,23.8,09.1,0000.0,0002.76,0007.56,0002.19
2022-02-06 08:57:00,,0829.8,5.01,0.00,22.1,21.3,00.0,31.2,23.8,09.2,0000.0,0002.73,0006.37,0002.22
2022-02-06 08:58:00,,0829.8,5.00,0.00,22.1,21.4,00.0,31.2,23.8,09.2,0000.0,0002.66,0005.40,0002.22
2022-02-06 08:59:00,,0829.9,4.99,0.00,22.1,21.4,00.0,31.2,23.8,09.3,0000.0,0002.63,0005.22,0002.22
